timestamp,surface_pressure_avg,surface_temp_avg,battery_voltage,lat,long
2021-01-05 00:09:01+00:00,237.4647,3.7,12.65,47.84626,-54.09684
2021-01-05 00:19:01+00:00,237.72799999999998,3.7,12.65,47.84626,-54.09684
2021-01-05 00:29:01+00:00,240.2947,3.7,12.65,47.84626,-54.09684
2021-01-05 00:39:01+00:00,244.9682,3.7,12.65,47.84626,-54.09684
2021-01-05 00:49:01+00:00,246.9598,3.7,12.65,47.84626,-54.09684
2021-01-05 00:59:01+00:00,249.9481,3.7,12.65,47.84626,-54.09684
2021-01-05 01:09:01+00:00,255.9714,3.7,12.65,47.84626,-54.09684
2021-01-05 01:19:01+00:00,261.6164,3.7,12.65,47.84626,-54.09684
2021-01-05 01:29:01+00:00,263.7647,3.7,12.65,47.84626,-54.09684
2021-01-05 01:39:01+00:00,270.2381,3.73,12.65,47.84626,-54.09684
2021-01-05 01:49:01+00:00,280.0131,3.75,12.65,47.84626,-54.09684
2021-01-05 01:59:01+00:00,285.658,3.74,12.65,47.84626,-54.09684
2021-01-05 02:09:01+00:00,287.3464,3.76,12.65,47.84626,-54.09684
2021-01-05 02:19:01+00:00,295.7797,3.7,12.65,47.84626,-54.09684
2021-01-05 02:29:01+00:00,304.4514,3.68,12.65,47.84626,-54.09684
2021-01-05 02:39:01+00:00,307.6229,3.6,12.65,47.84626,-54.09684
2021-01-05 02:49:01+00:00,308.623,3.6,12.65,47.84626,-54.09684
2021-01-05 02:59:01+00:00,317.368,3.61,12.65,47.84626,-54.09684
2021-01-05 03:09:01+00:00,322.8613,3.65,12.65,47.84626,-54.09684
2021-01-05 03:19:01+00:00,323.9129,3.6,12.57,47.84626,-54.09684
2021-01-05 03:29:01+00:00,327.1529,3.6,12.57,47.84626,-54.09684
2021-01-05 03:39:01+00:00,333.1880000000001,3.6,12.57,47.84626,-54.09684
2021-01-05 03:49:01+00:00,334.39300000000014,3.6,12.57,47.84626,-54.09684
2021-01-05 03:59:01+00:00,333.9648,3.67,12.57,47.84626,-54.09684
2021-01-05 04:09:01+00:00,334.7095,3.7,12.57,47.84626,-54.09684
2021-01-05 04:19:01+00:00,333.958,3.8,12.57,47.84626,-54.09684
2021-01-05 04:29:01+00:00,330.413,3.98,12.57,47.84626,-54.09684
2021-01-05 04:39:01+00:00,327.8346,4.0,12.57,47.84626,-54.09684
2021-01-05 04:49:01+00:00,326.7328,4.0,12.57,47.84626,-54.09684
2021-01-05 04:59:01+00:00,326.7062,4.0,12.57,47.84626,-54.09684
2021-01-05 05:09:01+00:00,325.1579,4.0,12.57,47.84626,-54.09684
2021-01-05 05:19:01+00:00,325.7714,4.0,12.57,47.84626,-54.09684
2021-01-05 05:29:01+00:00,324.4297,3.99,12.57,47.84626,-54.09684
2021-01-05 05:39:01+00:00,320.413,3.99,12.57,47.84626,-54.09684
2021-01-05 05:49:01+00:00,316.4231,4.0,12.57,47.84626,-54.09684
2021-01-05 05:59:01+00:00,311.723,3.96,12.57,47.84626,-54.09684
2021-01-05 06:09:01+00:00,305.0179,3.9,12.57,47.84626,-54.09684
2021-01-05 06:19:01+00:00,296.0148,3.8,12.57,47.84626,-54.09684
2021-01-05 06:29:01+00:00,289.8863,3.77,12.57,47.84626,-54.09684
2021-01-05 06:39:01+00:00,282.948,3.86,12.57,47.84626,-54.09684
2021-01-05 06:49:01+00:00,274.7581,3.7,12.57,47.84626,-54.09684
2021-01-05 06:59:01+00:00,267.1464,3.6,12.57,47.84626,-54.09684
2021-01-05 07:09:01+00:00,259.1147,3.66,12.57,47.84626,-54.09684
2021-01-05 07:19:01+00:00,250.1765,3.7,12.57,47.84626,-54.09684
2021-01-05 07:29:01+00:00,241.7147,3.7,12.57,47.84626,-54.09684
2021-01-05 07:39:01+00:00,233.7998,3.69,12.57,47.84626,-54.09684
2021-01-05 07:49:01+00:00,224.1581,3.7,12.57,47.84626,-54.09684
2021-01-05 07:59:01+00:00,214.0431,3.7,12.57,47.84626,-54.09684
2021-01-05 08:09:01+00:00,207.7214,3.7,12.57,47.84626,-54.09684
2021-01-05 08:19:01+00:00,204.3131,3.7,12.57,47.84626,-54.09684
2021-01-05 08:29:01+00:00,197.0931,3.7,12.57,47.84626,-54.09684
2021-01-05 08:39:01+00:00,191.2432,3.59,12.57,47.84626,-54.09684
2021-01-05 08:49:01+00:00,191.5331,3.5,12.57,47.84626,-54.09684
2021-01-05 08:59:01+00:00,192.3765,3.5,12.57,47.84626,-54.09684
2021-01-05 09:09:01+00:00,191.2398,3.48,12.57,47.84626,-54.09684
2021-01-05 09:19:01+00:00,189.6831,3.67,12.57,47.84626,-54.09684
2021-01-05 09:29:01+00:00,192.9031,3.77,12.57,47.84626,-54.09684
2021-01-05 09:39:01+00:00,199.6381,3.79,12.57,47.84626,-54.09684
2021-01-05 09:49:01+00:00,200.4431,3.78,12.57,47.84626,-54.09684
2021-01-05 09:59:01+00:00,197.8614,3.76,12.57,47.84626,-54.09684
2021-01-05 10:09:01+00:00,204.7331,3.73,12.57,47.84626,-54.09684
2021-01-05 10:19:01+00:00,211.3698,3.77,12.57,47.84626,-54.09684
2021-01-05 10:29:01+00:00,207.5398,3.77,12.57,47.84626,-54.09684
2021-01-05 10:39:01+00:00,210.8814,3.7,12.57,47.84626,-54.09684
2021-01-05 10:49:01+00:00,222.2748,3.7,12.57,47.84626,-54.09684
2021-01-05 10:59:01+00:00,221.7964,3.69,12.57,47.84626,-54.09684
2021-01-05 11:09:01+00:00,220.3181,3.6,12.57,47.84626,-54.09684
2021-01-05 11:19:01+00:00,225.3998,3.6,12.57,47.84626,-54.09684
2021-01-05 11:29:01+00:00,229.4131,3.53,12.57,47.84626,-54.09684
2021-01-05 11:39:01+00:00,230.9814,3.5,12.57,47.84626,-54.09684
2021-01-05 11:49:01+00:00,234.9397,3.5,12.57,47.84626,-54.09684
2021-01-05 11:59:01+00:00,238.6814,3.5,12.57,47.84626,-54.09684
2021-01-05 12:09:01+00:00,237.6248,3.5,12.57,47.84626,-54.09684
2021-01-05 12:19:01+00:00,239.5431,3.5,12.57,47.84626,-54.09684
2021-01-05 12:29:01+00:00,245.7381,3.5,12.57,47.84626,-54.09684
2021-01-05 12:39:01+00:00,248.4632,3.5,12.57,47.84626,-54.09684
2021-01-05 12:49:01+00:00,246.6165,3.5,12.57,47.84626,-54.09684
2021-01-05 12:59:01+00:00,254.2331,3.5,12.57,47.84626,-54.09684
2021-01-05 13:09:01+00:00,264.9264,3.5,12.57,47.84626,-54.09684
2021-01-05 13:19:01+00:00,266.4581,3.49,12.97,47.84626,-54.09684
2021-01-05 13:29:01+00:00,266.4298,3.48,12.97,47.84626,-54.09684
2021-01-05 13:39:01+00:00,279.3681,3.5,12.97,47.84626,-54.09684
2021-01-05 13:49:01+00:00,286.9097,3.6,12.97,47.84626,-54.09684
2021-01-05 13:59:01+00:00,287.2997,3.51,12.97,47.84626,-54.09684
2021-01-05 14:09:01+00:00,294.6647,3.52,12.97,47.84626,-54.09684
2021-01-05 14:19:01+00:00,308.6814,3.5,13.76,47.84626,-54.09684
2021-01-05 14:29:01+00:00,311.5031,3.52,13.76,47.84626,-54.09684
2021-01-05 14:39:01+00:00,315.8363,3.54,13.76,47.84626,-54.09684
2021-01-05 14:49:01+00:00,326.4514,3.52,13.76,47.84626,-54.09684
2021-01-05 14:59:01+00:00,331.4480000000001,3.51,13.76,47.84626,-54.09684
2021-01-05 15:09:01+00:00,332.4463,3.56,13.76,47.84626,-54.09684
2021-01-05 15:19:01+00:00,338.3163,3.56,14.08,47.84626,-54.09684
2021-01-05 15:29:01+00:00,343.733,3.56,14.08,47.84626,-54.09684
2021-01-05 15:39:01+00:00,346.2263,3.59,14.08,47.84626,-54.09684
2021-01-05 15:49:01+00:00,347.6446,3.6,14.08,47.84626,-54.09684
2021-01-05 15:59:01+00:00,350.4695,3.6,14.08,47.84626,-54.09684
2021-01-05 16:09:01+00:00,349.9296,3.6,14.08,47.84626,-54.09684
2021-01-05 16:19:01+00:00,348.43300000000005,3.61,14.08,47.84626,-54.09684
2021-01-05 16:29:01+00:00,348.0513,3.7,14.08,47.84626,-54.09684
2021-01-05 16:39:01+00:00,348.44800000000015,3.7,14.08,47.84626,-54.09684
2021-01-05 16:49:01+00:00,346.7963,3.7,14.08,47.84626,-54.09684
2021-01-05 16:59:01+00:00,343.6313,3.6,14.08,47.84626,-54.09684
2021-01-05 17:09:01+00:00,339.7864,3.69,14.08,47.84626,-54.09684
2021-01-05 17:19:01+00:00,338.0447,3.7,13.84,47.84626,-54.09684
2021-01-05 17:29:01+00:00,337.1013,3.71,13.84,47.84626,-54.09684
2021-01-05 17:39:01+00:00,334.0247,3.8,13.84,47.84626,-54.09684
2021-01-05 17:49:01+00:00,329.1595,3.8,13.84,47.84626,-54.09684
2021-01-05 17:59:01+00:00,327.438,3.9,13.84,47.84626,-54.09684
2021-01-05 18:09:01+00:00,326.6196,4.0,13.84,47.84626,-54.09684
2021-01-05 18:19:01+00:00,319.2897,4.08,13.53,47.84626,-54.09684
2021-01-05 18:29:01+00:00,311.4313,3.91,13.53,47.84626,-54.09684
2021-01-05 18:39:01+00:00,306.3063,4.0,13.53,47.84626,-54.09684
2021-01-05 18:49:01+00:00,300.633,3.8,13.53,47.84626,-54.09684
2021-01-05 18:59:01+00:00,292.1797,3.7,13.53,47.84626,-54.09684
2021-01-05 19:09:01+00:00,285.173,3.7,13.53,47.84626,-54.09684
2021-01-05 19:19:01+00:00,279.303,3.7,13.13,47.84626,-54.09684
2021-01-05 19:29:01+00:00,271.2281,3.58,13.13,47.84626,-54.09684
2021-01-05 19:39:01+00:00,262.3231,3.57,13.13,47.84626,-54.09684
2021-01-05 19:49:01+00:00,253.3531,3.57,13.13,47.84626,-54.09684
2021-01-05 19:59:01+00:00,245.3947,3.6,13.13,47.84626,-54.09684
2021-01-05 20:09:01+00:00,238.6114,3.6,13.13,47.84626,-54.09684
2021-01-05 20:19:01+00:00,231.5164,3.6,12.81,47.84626,-54.09684
2021-01-05 20:29:01+00:00,221.7765,3.6,12.81,47.84626,-54.09684
2021-01-05 20:39:01+00:00,215.2914,3.6,12.81,47.84626,-54.09684
2021-01-05 20:49:01+00:00,213.3231,3.7,12.81,47.84626,-54.09684
2021-01-05 20:59:01+00:00,210.9548,3.7,12.81,47.84626,-54.09684
2021-01-05 21:09:01+00:00,206.6831,3.6,12.81,47.84626,-54.09684
2021-01-05 21:19:01+00:00,203.3114,3.69,12.65,47.84626,-54.09684
2021-01-05 21:29:01+00:00,203.6381,3.6,12.65,47.84626,-54.09684
2021-01-05 21:39:01+00:00,205.0331,3.65,12.65,47.84626,-54.09684
2021-01-05 21:49:01+00:00,203.6731,3.6,12.65,47.84626,-54.09684
2021-01-05 21:59:01+00:00,202.3731,3.58,12.65,47.84626,-54.09684
2021-01-05 22:09:01+00:00,205.3015,3.57,12.65,47.84626,-54.09684
2021-01-05 22:19:01+00:00,208.5231,3.6,12.65,47.84626,-54.09684
2021-01-05 22:29:01+00:00,209.4931,3.6,12.65,47.84626,-54.09684
2021-01-05 22:39:01+00:00,212.5947,3.64,12.65,47.84626,-54.09684
2021-01-05 22:49:01+00:00,218.7947,3.7,12.65,47.84626,-54.09684
2021-01-05 22:59:01+00:00,222.7415,3.6,12.65,47.84626,-54.09684
2021-01-05 23:09:01+00:00,223.7231,3.6,12.65,47.84626,-54.09684
2021-01-05 23:19:01+00:00,224.9797,3.6,12.65,47.84626,-54.09684
2021-01-05 23:29:01+00:00,224.8014,3.7,12.65,47.84626,-54.09684
2021-01-05 23:39:01+00:00,225.1431,3.8,12.65,47.84626,-54.09684
2021-01-05 23:49:01+00:00,225.0581,3.87,12.65,47.84626,-54.09684
2021-01-05 23:59:01+00:00,224.1381,3.9,12.65,47.84626,-54.09684
